Wind_Speed
15 13 13 13 11 12 11 10 8 5 3 3 4 5 6 7 6 5 2 0 1 3 6 11 14 15 13 11 9 2 4 6 12 16 20 23 25 25 23 22 22 20 22 22 20
15 14 14 14 12 12 12 10 8 5 4 3 4 6 9 8 7 6 5 3 2 4 7 9 12 13 13 7 2 2 2 11 13 13 17 22 23 24 21 23 20 19 20 18 19
15 16 14 15 13 12 12 10 8 6 5 4 4 6 10 10 8 7 7 5 4 5 6 8 12 15 12 5 5 4 5 9 14 10 14 17 19 24 26 23 15 16 17 15 17
17 16 16 16 14 13 12 10 9 7 7 6 5 6 10 12 9 7 7 7 6 6 6 6 6 5 3 2 3 2 3 10 9 9 11 14 17 22 25 26 13 12 13 15 15
17 17 17 17 15 13 12 11 10 9 9 7 6 6 9 12 9 7 7 9 9 8 6 7 3 1 2 1 1 2 5 2 7 5 7 9 11 17 21 24 11 10 12 14 15
17 17 17 17 16 14 14 12 11 10 10 9 6 6 8 11 10 8 8 11 10 7 7 4 6 5 5 6 5 8 8 7 2 2 3 6 10 14 18 20 21 10 10 14 16
18 17 16 16 16 14 14 12 11 10 11 9 8 9 9 10 11 9 10 11 9 6 5 4 8 8 7 10 8 5 8 11 8 10 4 8 12 12 16 19 19 13 13 14 16
18 16 16 15 14 14 13 12 10 10 10 9 10 10 11 11 10 10 10 10 6 6 4 9 10 13 12 9 9 7 9 7 9 8 10 12 12 12 15 18 21 14 14 16 17
18 17 16 14 14 14 13 12 9 9 8 10 10 10 11 11 10 9 10 10 10 6 6 10 11 15 12 11 12 13 10 5 1 5 8 12 13 15 17 21 23 22 22 23 19
19 18 16 16 16 15 13 10 10 8 5 6 9 9 9 9 11 12 12 14 13 9 8 9 14 16 17 13 16 15 12 15 17 16 16 17 18 18 20 22 24 20 23 25 20
19 18 18 18 17 16 12 10 9 4 6 7 6 8 8 9 11 14 15 14 11 10 9 11 15 15 15 20 17 16 15 16 20 22 22 21 21 22 25 23 23 24 23 21 19
20 20 20 18 18 14 11 9 8 7 6 8 6 7 8 9 9 15 18 16 13 10 10 10 14 17 20 17 16 18 18 19 22 21 21 21 22 20 17 17 15 14 15 17 20
21 20 19 18 16 13 10 9 9 7 5 9 8 8 10 10 10 14 16 13 12 11 10 11 11 15 16 17 16 19 20 25 22 20 20 21 19 18 16 12 13 14 17 18 20
21 20 19 18 16 12 10 9 11 10 9 11 13 13 13 12 13 14 13 12 11 13 11 11 14 16 17 17 18 19 20 19 19 18 20 17 14 13 14 15 18 20 19 18 21
21 20 19 18 14 12 11 12 13 12 13 13 14 15 14 15 14 15 14 13 12 12 11 14 16 17 18 18 17 12 13 15 17 16 20 17 15 15 16 19 21 20 22 24 29
22 21 19 16 13 14 14 16 13 14 16 14 14 15 14 15 17 16 14 13 13 13 14 14 16 16 18 17 11 9 13 15 17 18 17 16 15 15 18 21 20 22 25 29 33
22 20 19 16 15 16 19 16 15 19 18 16 15 17 17 16 16 13 13 15 16 15 13 13 15 15 16 14 11 11 13 17 19 18 18 16 16 20 21 18 19 23 26 29 31
23 23 20 16 17 18 21 17 18 19 17 12 14 18 19 19 18 16 16 17 17 15 13 12 13 14 15 15 14 15 16 18 19 15 15 18 18 17 16 19 22 24 26 28 27
24 24 20 19 19 21 22 20 21 20 17 15 14 17 19 20 19 17 17 17 17 16 13 12 11 13 14 13 13 15 16 16 15 15 15 15 16 17 20 21 23 26 26 26 26
25 22 20 20 21 24 24 23 23 22 19 18 17 16 19 20 19 17 16 14 15 12 10 8 8 10 12 12 13 14 15 18 19 20 18 18 20 20 23 24 26 28 27 24 24
25 23 22 22 24 25 24 24 24 24 22 22 19 17 16 19 19 18 16 14 12 10 7 6 7 8 10 11 15 18 23 25 26 25 24 24 23 28 29 29 31 30 26 24 25
26 25 24 24 25 25 23 23 24 25 26 25 23 21 19 17 18 19 17 13 11 12 9 9 11 11 12 15 18 21 23 26 27 27 25 25 24 28 33 36 34 29 24 26 29
25 25 25 25 25 25 24 25 26 27 29 27 28 26 23 20 17 17 17 16 13 12 12 13 14 16 18 21 23 26 26 29 30 29 26 27 28 34 36 35 32 26 26 31 32
24 25 24 26 24 25 23 24 28 29 30 29 29 28 25 22 19 15 13 13 12 13 15 16 19 22 25 28 29 28 29 30 31 30 28 27 33 34 34 30 25 26 30 32 35
26 24 24 25 25 25 24 26 31 32 30 30 29 29 27 25 21 20 16 13 13 17 21 24 27 30 32 33 34 33 33 32 33 32 30 30 33 32 26 23 26 29 32 33 34
27 24 25 25 26 26 26 26 31 36 34 32 31 31 27 26 26 25 23 20 21 23 27 30 32 33 38 40 39 35 32 33 32 32 31 30 31 27 25 28 31 30 32 35 36
30 28 28 27 27 27 26 27 29 33 39 34 33 34 34 31 31 31 29 28 28 30 32 34 36 39 41 39 38 35 33 32 31 29 30 30 29 27 28 29 31 32 36 36 33
Wind_Direction
217 216 219 206 205 205 200 197 193 195 203 214 215 208 200 189 201 213 236 149 111 106 131 141 154 153 145 138 141 132 128 92 86 82 78 68 60 60 56 50 46 37 37 39 53
214 214 215 202 207 205 198 199 199 204 224 241 235 215 209 202 209 216 217 184 167 140 152 156 155 163 157 149 149 144 46 108 96 73 73 69 57 55 49 47 48 42 36 51 53
211 210 208 200 206 207 200 204 210 220 242 252 252 229 214 209 215 216 219 197 172 168 166 148 169 169 180 209 128 75 57 110 91 68 57 57 58 56 44 47 51 49 32 60 56
210 207 201 202 206 206 206 210 223 235 254 262 251 227 218 212 214 218 221 203 181 181 175 179 199 204 203 80 89 97 75 111 94 71 40 42 52 54 42 41 58 49 33 49 45
204 204 199 205 206 210 217 222 233 246 255 257 242 219 213 213 219 222 227 215 206 196 193 196 196 210 142 158 178 331 340 140 144 87 50 31 28 41 40 32 42 25 30 35 40
199 199 201 205 210 216 225 231 237 241 247 246 230 206 206 210 216 227 235 226 222 210 211 221 211 218 205 218 284 319 316 317 283 182 24 10 7 19 32 18 21 9 12 23 23
200 199 201 207 214 216 226 231 236 239 241 235 223 210 210 205 216 224 222 223 227 216 219 194 219 219 244 246 301 288 316 318 345 358 340 344 359 0 14 3 16 14 3 8 1
202 202 205 210 216 220 224 233 233 238 237 229 224 216 218 221 221 220 209 210 197 212 212 206 222 227 235 273 255 299 319 338 337 334 344 333 344 346 353 347 354 355 356 342 339
205 207 211 218 219 224 222 225 226 234 234 226 227 224 229 225 220 199 185 180 170 179 189 215 235 239 253 255 267 287 286 300 285 301 313 316 326 333 336 332 335 337 330 330 318
208 215 219 217 219 220 220 223 226 232 244 238 231 229 227 222 202 177 175 178 181 184 170 208 233 241 252 256 276 269 260 271 276 279 288 303 320 322 320 317 316 314 312 314 302
213 218 215 217 220 220 218 224 223 228 233 238 231 225 219 221 199 175 173 179 184 190 189 211 235 253 263 269 266 253 267 280 290 290 301 305 305 305 308 311 308 301 300 299 297
214 213 213 214 222 221 222 222 208 219 237 227 218 218 211 219 201 184 182 184 193 197 207 219 235 247 267 272 254 264 268 283 287 293 298 299 302 310 308 308 309 307 299 291 297
209 210 212 215 222 226 216 209 204 217 223 208 209 208 200 202 193 192 196 208 206 205 222 233 248 249 258 267 281 281 290 295 295 298 301 304 307 310 320 328 329 308 295 296 307
211 210 215 218 220 214 203 197 206 214 215 202 197 204 206 194 199 203 206 214 210 212 222 240 248 251 265 281 291 295 296 301 304 304 314 314 314 322 325 322 323 318 308 308 310
211 211 215 215 212 205 185 197 211 208 214 214 209 202 196 199 195 197 207 207 212 230 233 245 252 265 279 291 303 294 298 310 316 312 314 319 326 330 328 322 318 311 306 304 311
211 212 215 214 205 194 187 212 209 214 217 214 214 205 199 197 193 200 204 209 224 228 234 247 254 265 281 295 296 297 299 307 325 323 313 312 316 326 323 319 316 310 308 309 310
214 215 215 207 198 191 203 210 210 219 220 221 212 201 196 198 195 206 217 221 232 239 246 254 268 281 293 306 303 296 303 313 310 312 309 313 317 315 318 318 315 311 313 311 308
213 217 214 203 197 192 209 209 216 226 223 224 219 211 199 191 190 204 219 230 235 245 252 262 275 287 295 302 307 302 308 313 312 315 310 312 314 317 319 322 320 316 312 309 310
213 214 209 203 199 196 209 207 219 225 225 220 213 213 207 201 199 200 212 228 235 244 249 258 271 285 295 310 309 317 313 312 311 314 316 322 328 332 328 326 329 330 327 318 315
211 210 208 205 205 207 210 211 218 222 221 219 215 215 215 210 211 207 213 228 238 240 252 264 276 277 291 303 312 319 323 325 328 327 322 325 329 330 331 330 331 328 328 322 316
211 211 211 208 211 216 214 218 223 220 217 218 218 224 222 216 217 221 218 218 233 232 243 277 301 294 304 313 312 315 322 325 329 330 326 323 333 329 333 331 329 326 323 320 314
211 211 211 213 215 221 221 224 232 224 223 216 216 223 229 221 213 223 224 224 235 252 253 259 284 293 295 306 307 308 310 311 314 318 316 317 331 326 328 326 325 319 317 319 321
211 212 212 216 217 219 220 226 232 227 228 219 218 223 229 235 227 220 224 233 238 246 259 272 281 291 295 300 306 310 312 315 316 315 319 317 324 322 322 320 314 310 315 321 318
214 216 213 220 219 224 221 224 232 232 232 228 226 227 230 236 235 239 237 237 248 266 279 289 294 297 298 301 305 308 310 309 309 311 309 310 313 316 316 313 309 310 309 310 309
219 219 219 221 222 224 219 219 228 237 234 238 237 231 230 237 247 252 260 268 278 283 286 290 293 294 296 300 301 303 306 307 309 310 308 308 309 313 312 306 307 311 313 315 314
223 220 225 223 225 221 221 219 224 235 240 237 240 244 240 238 241 248 252 258 267 273 277 280 286 292 296 298 298 300 304 305 307 308 309 311 314 315 309 312 313 315 316 315 315
229 226 226 226 228 225 222 222 225 233 240 244 242 244 246 241 241 244 248 256 265 272 278 285 288 289 290 292 295 300 303 303 304 308 310 311 310 307 307 306 308 312 311 315 320
Height
5892 5893 5896 5898 5901 5904 5905 5906 5907 5908 5909 5909 5910 5911 5911 5911 5912 5914 5916 5918 5918 5919 5920 5921 5924 5926 5929 5931 5934 5935 5936 5934 5933 5932 5931 5929 5928 5926 5925 5923 5921 5919 5918 5916 5914
5889 5892 5895 5897 5901 5903 5904 5906 5907 5908 5909 5909 5909 5910 5911 5912 5913 5914 5916 5917 5918 5919 5920 5922 5924 5926 5929 5932 5934 5935 5935 5934 5933 5933 5931 5930 5930 5928 5926 5924 5922 5920 5918 5917 5915
5887 5890 5893 5896 5900 5902 5902 5905 5906 5907 5908 5909 5909 5910 5911 5911 5913 5914 5915 5917 5917 5919 5920 5922 5924 5927 5930 5932 5934 5934 5935 5934 5934 5933 5933 5931 5930 5929 5927 5925 5924 5921 5919 5917 5916
5886 5888 5891 5895 5898 5900 5902 5904 5905 5907 5907 5908 5908 5909 5910 5911 5914 5914 5915 5916 5917 5919 5920 5922 5923 5926 5929 5931 5933 5934 5934 5935 5935 5934 5933 5932 5931 5930 5929 5927 5924 5922 5920 5918 5916
5884 5887 5890 5894 5896 5899 5901 5902 5904 5906 5907 5907 5908 5909 5910 5911 5913 5914 5915 5916 5917 5918 5920 5922 5924 5927 5929 5931 5932 5933 5934 5933 5934 5933 5933 5932 5932 5930 5930 5928 5925 5923 5921 5919 5916
5882 5885 5889 5892 5895 5897 5899 5900 5903 5904 5905 5906 5907 5908 5909 5911 5911 5913 5914 5916 5918 5919 5921 5923 5925 5928 5930 5931 5932 5933 5933 5933 5933 5933 5932 5932 5931 5929 5929 5928 5926 5923 5921 5918 5916
5881 5884 5887 5890 5893 5895 5897 5899 5901 5902 5903 5904 5906 5907 5909 5910 5910 5911 5913 5915 5918 5920 5921 5923 5926 5929 5930 5931 5933 5933 5933 5933 5932 5932 5932 5931 5930 5929 5928 5928 5926 5924 5921 5918 5915
5880 5882 5886 5889 5892 5894 5896 5898 5899 5899 5901 5903 5905 5906 5908 5909 5910 5911 5913 5915 5918 5920 5922 5925 5926 5928 5930 5932 5933 5933 5933 5932 5931 5931 5930 5930 5929 5927 5926 5926 5925 5922 5921 5918 5915
5878 5881 5884 5888 5890 5893 5894 5896 5896 5898 5900 5902 5904 5905 5907 5908 5910 5911 5913 5916 5918 5921 5923 5925 5926 5928 5930 5932 5934 5932 5932 5931 5930 5929 5928 5927 5927 5925 5925 5923 5922 5919 5918 5916 5912
5875 5879 5882 5885 5888 5890 5892 5894 5895 5897 5899 5901 5903 5906 5907 5908 5909 5910 5913 5915 5917 5920 5923 5925 5926 5927 5929 5931 5933 5932 5931 5930 5929 5927 5925 5924 5923 5923 5922 5921 5919 5916 5914 5911 5908
5872 5876 5880 5883 5886 5888 5890 5893 5896 5898 5898 5901 5902 5903 5904 5906 5908 5910 5913 5915 5917 5920 5922 5925 5926 5927 5928 5930 5930 5930 5929 5928 5927 5925 5923 5922 5920 5920 5918 5917 5915 5913 5909 5907 5904
5870 5874 5877 5881 5884 5886 5889 5892 5894 5896 5897 5899 5900 5902 5904 5905 5908 5910 5913 5915 5917 5919 5922 5924 5925 5926 5927 5928 5929 5928 5927 5925 5924 5923 5921 5919 5918 5916 5915 5913 5911 5908 5906 5904 5901
5867 5871 5875 5878 5881 5885 5888 5890 5892 5894 5896 5898 5899 5901 5903 5905 5907 5910 5913 5914 5916 5918 5921 5922 5925 5925 5926 5926 5927 5925 5925 5923 5921 5919 5917 5915 5914 5912 5911 5908 5907 5905 5902 5900 5897
5865 5868 5872 5876 5881 5884 5886 5888 5890 5892 5894 5897 5898 5899 5902 5903 5906 5909 5912 5915 5916 5918 5920 5922 5923 5924 5924 5924 5924 5923 5922 5919 5917 5915 5913 5912 5912 5909 5907 5905 5902 5900 5897 5896 5893
5862 5866 5869 5874 5879 5882 5885 5886 5887 5891 5892 5895 5896 5898 5900 5903 5906 5909 5911 5913 5915 5917 5920 5922 5922 5922 5922 5922 5921 5921 5918 5916 5913 5912 5910 5908 5907 5905 5904 5901 5899 5896 5893 5891 5888
5860 5863 5868 5873 5876 5879 5882 5882 5886 5889 5889 5891 5894 5896 5899 5901 5904 5907 5909 5912 5914 5916 5918 5920 5920 5920 5920 5919 5919 5917 5914 5913 5911 5909 5907 5905 5905 5903 5901 5899 5896 5893 5890 5886 5883
5857 5861 5865 5869 5873 5876 5878 5880 5884 5884 5887 5890 5892 5894 5897 5900 5903 5906 5908 5910 5912 5915 5917 5918 5918 5917 5917 5917 5915 5914 5912 5911 5910 5907 5905 5903 5903 5900 5898 5895 5893 5889 5886 5882 5877
5855 5859 5863 5866 5870 5873 5875 5879 5880 5882 5885 5888 5891 5893 5895 5898 5901 5904 5906 5909 5910 5912 5914 5916 5916 5915 5914 5914 5912 5911 5910 5908 5905 5905 5904 5901 5900 5897 5895 5892 5889 5886 5882 5877 5872
5851 5856 5860 5863 5867 5869 5872 5876 5877 5880 5883 5887 5889 5892 5894 5896 5900 5902 5904 5906 5908 5910 5912 5912 5912 5912 5910 5911 5910 5909 5907 5906 5904 5903 5900 5898 5897 5894 5891 5888 5885 5881 5876 5871 5866
5848 5852 5856 5859 5863 5866 5869 5872 5875 5878 5881 5884 5887 5890 5893 5896 5898 5900 5903 5905 5906 5908 5908 5909 5910 5909 5909 5908 5908 5907 5905 5903 5900 5899 5897 5895 5892 5890 5887 5884 5880 5876 5871 5866 5862
5845 5848 5852 5856 5859 5862 5866 5870 5872 5875 5878 5882 5885 5888 5891 5894 5896 5899 5901 5903 5904 5905 5906 5906 5907 5908 5907 5906 5905 5904 5901 5899 5897 5895 5892 5890 5890 5884 5881 5878 5875 5870 5865 5861 5857
5841 5845 5849 5852 5857 5859 5863 5867 5870 5872 5875 5879 5882 5885 5888 5891 5895 5897 5899 5901 5902 5903 5904 5905 5905 5905 5905 5903 5902 5900 5898 5896 5894 5892 5889 5886 5886 5880 5876 5871 5867 5863 5859 5855 5850
5837 5841 5845 5848 5852 5855 5860 5863 5865 5869 5871 5875 5878 5881 5885 5888 5892 5895 5897 5898 5899 5900 5901 5902 5902 5902 5901 5901 5898 5896 5894 5891 5889 5886 5884 5881 5880 5875 5871 5866 5862 5858 5854 5849 5844
5833 5836 5841 5844 5848 5852 5856 5859 5861 5865 5868 5871 5875 5879 5883 5886 5890 5893 5894 5895 5896 5897 5898 5898 5898 5897 5897 5896 5894 5892 5890 5887 5884 5881 5879 5878 5874 5871 5866 5860 5856 5853 5849 5844 5839
5828 5832 5836 5840 5845 5849 5852 5856 5857 5859 5864 5867 5871 5875 5879 5883 5886 5888 5890 5891 5893 5894 5894 5894 5893 5892 5891 5890 5888 5887 5884 5881 5878 5876 5874 5872 5868 5864 5860 5856 5851 5847 5842 5837 5832
5823 5828 5832 5835 5839 5844 5847 5851 5853 5854 5859 5864 5867 5870 5875 5879 5882 5884 5886 5888 5889 5890 5889 5889 5887 5886 5884 5882 5880 5879 5879 5876 5873 5870 5867 5864 5860 5856 5853 5848 5844 5840 5835 5830 5825
5817 5822 5827 5832 5835 5839 5843 5846 5849 5851 5853 5857 5862 5865 5869 5873 5876 5879 5881 5883 5884 5884 5883 5883 5882 5879 5877 5875 5873 5873 5871 5868 5866 5863 5860 5857 5854 5850 5846 5841 5837 5835 5830 5824 5820